| time (UTC) | temp F | wind direction | speed knots | gust knots | rain 1hr in | rain 24hr in | rain mn in | humidity % | barometer mb |
| 20260903124602 | 56 | 289 | 0.0 | 0.0 | 0.00 | 0.00 | 0.00 | 97 | 1012.5 |
| 20260903123055 | 55 | 289 | 0.0 | 0.0 | 0.00 | 0.00 | 0.00 | 97 | 1012.6 |
| 20260903121559 | 53 | 289 | 0.0 | 0.0 | 0.00 | 0.00 | 0.00 | 96 | 1012.4 |
| 20260903120024 | 53 | 289 | 0.0 | 0.0 | 0.00 | 0.00 | 0.00 | 95 | 1012.3 |
| 20260903114523 | 53 | 289 | 0.0 | 0.0 | 0.00 | 0.00 | 0.00 | 95 | 1012.2 |
| 20260903113049 | 54 | 289 | 0.0 | 0.0 | 0.00 | 0.00 | 0.00 | 96 | 1012.1 |
| 20260903111547 | 53 | 289 | 0.0 | 0.0 | 0.00 | 0.00 | 0.00 | 96 | 1011.9 |
| 20260903110046 | 53 | 289 | 0.0 | 0.0 | 0.00 | 0.00 | 0.00 | 96 | 1011.7 |
| 20260903104545 | 54 | 289 | 0.0 | 0.0 | 0.00 | 0.00 | 0.00 | 96 | 1011.8 |
| 20260903103045 | 53 | 289 | 0.0 | 0.0 | 0.00 | 0.00 | 0.00 | 96 | 1011.6 |
| 20260903101545 | 53 | 289 | 0.0 | 0.0 | 0.00 | 0.00 | 0.00 | 96 | 1011.8 |
| 20260903100042 | 53 | 289 | 0.0 | 0.0 | 0.00 | 0.00 | 0.00 | 96 | 1011.9 |
| 20260903094543 | 53 | 289 | 0.0 | 0.0 | 0.00 | 0.00 | 0.00 | 95 | 1011.9 |
| 20260903093043 | 53 | 289 | 0.0 | 0.0 | 0.00 | 0.00 | 0.00 | 95 | 1011.9 |
| 20260903091553 | 53 | 289 | 0.0 | 0.0 | 0.00 | 0.00 | 0.00 | 95 | 1011.9 |
| 20260903090008 | 53 | 289 | 0.0 | 0.0 | 0.00 | 0.00 | 0.00 | 95 | 1011.7 |
| 20260903084512 | 53 | 289 | 0.0 | 0.0 | 0.00 | 0.00 | 0.00 | 95 | 1011.8 |
| 20260903083037 | 53 | 289 | 0.0 | 0.0 | 0.00 | 0.00 | 0.00 | 95 | 1011.7 |
| 20260903081537 | 54 | 289 | 0.0 | 0.0 | 0.00 | 0.00 | 0.00 | 95 | 1011.8 |
| 20260903080004 | 54 | 289 | 0.0 | 0.0 | 0.00 | 0.00 | 0.00 | 95 | 1011.8 |
| 20260903074504 | 54 | 289 | 0.0 | 0.0 | 0.00 | 0.00 | 0.00 | 95 | 1011.7 |
| 20260903073115 | 54 | 289 | 0.0 | 0.0 | 0.00 | 0.00 | 0.00 | 94 | 1011.7 |
| 20260903071600 | 54 | 289 | 0.0 | 0.0 | 0.00 | 0.00 | 0.00 | 94 | 1011.7 |
| 20260903070106 | 55 | 289 | 0.0 | 0.0 | 0.00 | 0.00 | 0.00 | 94 | 1011.8 |
| 20260903064601 | 55 | 289 | 0.0 | 0.0 | 0.00 | 0.00 | 0.00 | 94 | 1011.6 |
| 20260903063113 | 55 | 289 | 0.0 | 0.0 | 0.00 | 0.00 | 0.00 | 94 | 1011.5 |
| 20260903061556 | 56 | 289 | 0.9 | 0.0 | 0.00 | 0.00 | 0.00 | 94 | 1011.6 |
| 20260903060051 | 56 | 289 | 0.9 | 0.0 | 0.00 | 0.00 | 0.00 | 94 | 1011.8 |
| 20260903054549 | 56 | 289 | 0.0 | 0.0 | 0.00 | 0.00 | 0.00 | 93 | 1011.7 |
| 20260903053048 | 56 | 289 | 0.0 | 0.0 | 0.00 | 0.00 | 0.00 | 93 | 1011.6 |
| 20260903051546 | 57 | 289 | 0.0 | 0.0 | 0.00 | 0.00 | 0.00 | 92 | 1011.5 |
| 20260903050045 | 57 | 289 | 0.9 | 0.0 | 0.00 | 0.00 | 0.00 | 93 | 1011.4 |
| 20260903044546 | 58 | 289 | 0.0 | 0.0 | 0.00 | 0.00 | 0.00 | 93 | 1011.4 |
| 20260903043055 | 58 | 289 | 0.0 | 0.0 | 0.00 | 0.00 | 0.00 | 92 | 1011.2 |
| 20260903041541 | 58 | 289 | 0.0 | 0.0 | 0.00 | 0.00 | 0.00 | 92 | 1011.2 |
| 20260903040042 | 58 | 289 | 0.0 | 0.0 | 0.00 | 0.00 | 0.00 | 91 | 1011.3 |
| 20260903034540 | 59 | 289 | 0.0 | 0.0 | 0.00 | 0.00 | 0.00 | 91 | 1011.2 |
| 20260903033036 | 59 | 289 | 0.0 | 0.0 | 0.00 | 0.00 | 0.00 | 90 | 1011.2 |
| 20260903031545 | 60 | 289 | 0.0 | 0.0 | 0.00 | 0.00 | 0.00 | 89 | 1011.3 |
| 20260903030036 | 61 | 289 | 0.0 | 0.0 | 0.00 | 0.00 | 0.00 | 89 | 1011.1 |
| 20260903024535 | 61 | 289 | 0.0 | 0.0 | 0.00 | 0.00 | 0.00 | 87 | 1011.0 |
| 20260903023036 | 62 | 289 | 0.0 | 0.0 | 0.00 | 0.00 | 0.00 | 87 | 1011.0 |
| 20260903021532 | 63 | 289 | 0.0 | 0.0 | 0.00 | 0.00 | 0.00 | 86 | 1011.0 |
| 20260903020039 | 64 | 289 | 0.0 | 0.0 | 0.00 | 0.00 | 0.00 | 85 | 1011.1 |
| 20260903014531 | 64 | 289 | 0.0 | 0.0 | 0.00 | 0.00 | 0.00 | 84 | 1011.0 |
| 20260903013029 | 65 | 276 | 0.0 | 0.0 | 0.00 | 0.00 | 0.00 | 84 | 1010.8 |
| 20260903011526 | 66 | 286 | 0.0 | 0.0 | 0.00 | 0.00 | 0.00 | 81 | 1010.6 |
| 20260903010026 | 67 | 289 | 0.0 | 0.0 | 0.00 | 0.00 | 0.00 | 79 | 1010.5 |
| 20260903004524 | 68 | 289 | 0.0 | 0.0 | 0.00 | 0.00 | 0.00 | 77 | 1010.5 |
| 20260903003025 | 69 | 288 | 0.0 | 0.0 | 0.00 | 0.00 | 0.00 | 75 | 1010.4 |
| 20260903001521 | 70 | 287 | 0.0 | 0.0 | 0.00 | 0.00 | 0.00 | 71 | 1010.2 |
| 20260903000021 | 71 | 288 | 0.0 | 0.0 | 0.00 | 0.00 | 0.00 | 69 | 1010.3 |
| 20260902234520 | 71 | 289 | 0.9 | 0.0 | 0.00 | 0.00 | 0.00 | 66 | 1010.3 |
| 20260902233020 | 72 | 287 | 0.0 | 0.0 | 0.00 | 0.00 | 0.00 | 64 | 1010.2 |
| 20260902231519 | 72 | 287 | 0.9 | 0.0 | 0.00 | 0.00 | 0.00 | 64 | 1010.3 |
| 20260902230019 | 72 | 284 | 0.9 | 0.0 | 0.00 | 0.00 | 0.00 | 63 | 1010.1 |
| 20260902224517 | 73 | 268 | 2.6 | 0.0 | 0.00 | 0.00 | 0.00 | 63 | 1009.9 |
| 20260902223027 | 73 | 324 | 3.5 | 0.0 | 0.00 | 0.00 | 0.00 | 62 | 1009.9 |
| 20260902221519 | 74 | 353 | 2.6 | 0.0 | 0.00 | 0.00 | 0.00 | 60 | 1009.8 |
| 20260902220012 | 74 | 306 | 1.7 | 0.0 | 0.00 | 0.00 | 0.00 | 60 | 1009.6 |
| 20260902214511 | 73 | 322 | 1.7 | 0.0 | 0.00 | 0.00 | 0.00 | 62 | 1009.7 |
| 20260902213010 | 74 | 266 | 4.3 | 0.0 | 0.00 | 0.00 | 0.00 | 62 | 1009.5 |
| 20260902211507 | 74 | 318 | 2.6 | 0.0 | 0.00 | 0.00 | 0.00 | 62 | 1009.6 |
| 20260902210006 | 74 | 329 | 2.6 | 0.0 | 0.00 | 0.00 | 0.00 | 62 | 1009.5 |
| 20260902204505 | 73 | 293 | 2.6 | 0.0 | 0.00 | 0.00 | 0.00 | 62 | 1009.6 |
| 20260902203005 | 73 | 299 | 4.3 | 0.0 | 0.00 | 0.00 | 0.00 | 62 | 1009.5 |
| 20260902201502 | 73 | 295 | 2.6 | 0.0 | 0.00 | 0.00 | 0.00 | 63 | 1009.4 |
| 20260902200001 | 73 | 291 | 0.9 | 0.0 | 0.00 | 0.00 | 0.00 | 63 | 1009.5 |
| 20260902194602 | 73 | 341 | 1.7 | 0.0 | 0.00 | 0.00 | 0.00 | 62 | 1009.7 |
| 20260902193101 | 74 | 14 | 2.6 | 0.0 | 0.00 | 0.00 | 0.00 | 61 | 1009.7 |
| 20260902191556 | 75 | 115 | 1.7 | 0.0 | 0.00 | 0.00 | 0.00 | 56 | 1009.5 |
| 20260902190059 | 75 | 202 | 0.9 | 0.0 | 0.00 | 0.00 | 0.00 | 57 | 1009.7 |
| 20260902184551 | 74 | 98 | 0.0 | 0.0 | 0.00 | 0.00 | 0.00 | 59 | 1009.8 |
| 20260902183059 | 72 | 350 | 2.6 | 0.0 | 0.00 | 0.00 | 0.00 | 63 | 1009.9 |
| 20260902181547 | 72 | 301 | 0.9 | 0.0 | 0.00 | 0.00 | 0.00 | 64 | 1010.0 |
| 20260902180047 | 72 | 300 | 0.9 | 0.0 | 0.00 | 0.00 | 0.00 | 65 | 1010.1 |
| 20260902174545 | 72 | 312 | 1.7 | 0.0 | 0.00 | 0.00 | 0.00 | 63 | 1010.1 |
| 20260902173056 | 71 | 298 | 2.6 | 0.0 | 0.00 | 0.00 | 0.00 | 65 | 1010.0 |
| 20260902171542 | 71 | 300 | 1.7 | 0.0 | 0.00 | 0.00 | 0.00 | 65 | 1009.8 |
| 20260902170047 | 72 | 307 | 1.7 | 0.0 | 0.00 | 0.00 | 0.00 | 63 | 1009.9 |
| 20260902164542 | 71 | 300 | 1.7 | 0.0 | 0.00 | 0.00 | 0.00 | 66 | 1010.1 |
| 20260902163042 | 70 | 14 | 2.6 | 0.0 | 0.00 | 0.00 | 0.00 | 65 | 1010.1 |
| 20260902161503 | 70 | 195 | 2.6 | 0.0 | 0.00 | 0.00 | 0.00 | 68 | 1010.0 |
| 20260902160001 | 69 | 183 | 2.6 | 0.0 | 0.00 | 0.00 | 0.00 | 70 | 1010.1 |
| 20260902154557 | 69 | 280 | 3.5 | 0.0 | 0.00 | 0.00 | 0.00 | 73 | 1010.2 |
| 20260902153105 | 69 | 267 | 1.7 | 0.0 | 0.00 | 0.00 | 0.00 | 75 | 1010.3 |
| 20260902151552 | 68 | 216 | 0.9 | 0.0 | 0.00 | 0.00 | 0.00 | 78 | 1010.4 |
| 20260902150049 | 67 | 257 | 0.9 | 0.0 | 0.00 | 0.00 | 0.00 | 81 | 1010.3 |
| 20260902144544 | 66 | 243 | 0.9 | 0.0 | 0.00 | 0.00 | 0.00 | 83 | 1010.3 |
| 20260902143041 | 66 | 235 | 1.7 | 0.0 | 0.00 | 0.00 | 0.00 | 83 | 1010.1 |
| 20260902141538 | 65 | 247 | 0.9 | 0.0 | 0.00 | 0.00 | 0.00 | 86 | 1010.3 |
| 20260902140035 | 64 | 250 | 0.0 | 0.0 | 0.00 | 0.00 | 0.00 | 88 | 1010.6 |
| 20260902134527 | 63 | 274 | 0.9 | 0.0 | 0.00 | 0.00 | 0.00 | 93 | 1010.6 |
| 20260902133023 | 61 | 295 | 0.9 | 0.0 | 0.00 | 0.00 | 0.00 | 95 | 1010.5 |
| 20260902131519 | 59 | 295 | 0.0 | 0.0 | 0.00 | 0.00 | 0.00 | 96 | 1010.6 |
| 20260902130016 | 57 | 295 | 0.0 | 0.0 | 0.00 | 0.00 | 0.00 | 96 | 1010.5 |